{"data":{"norad_id":41550,"epoch":"2026-09-18T21:45:58.982688Z","epoch_age_seconds":155743,"freshness":"FRESH","line1":"1 41550U 16030B   26261.90693267  .00000017  00000+0  00000+0 0  9990","line2":"2 41550  55.0730 219.1166 0003822 254.6532 105.2782  1.70473632 64261","mean_motion":1.70473632,"eccentricity":0.0003822,"inclination_deg":55.073,"raan_deg":219.1166,"arg_perigee_deg":254.6532,"mean_anomaly_deg":105.2782,"bstar":0,"rev_number":6426,"period_min":844.70541461802,"perigee_km":23210.912397584,"apogee_km":23233.538914799,"semimajor_km":29600.362656191,"source":"CELESTRAK","updated_at":"2026-09-20T09:00:46.494446Z"}}